Weather History for KPDK - August, 2014

Change the Weather History Date:

Wednesday, August 13, 2014

  Actual Average Record
Temperature  
Mean Temperature 76 °F 79 °F  
Max Temperature 84 °F 89 °F 99 °F (1999)
Min Temperature 67 °F 70 °F 57 °F (2004)
Cooling Degree Days 11 14  
Month to date cooling degree days 164 193  
Year to date cooling degree days 1165 1216  
Since 1 June cooling degree days 948 1005  
Growing Degree Days 24 (Base 50)    
Moisture  
Dew Point 59 °F    
Average Humidity 59    
Maximum Humidity 84    
Minimum Humidity 34    
Precipitation  
Precipitation 0.00 in 0.14 in 0.62 in (2005)
Month to date precipitation 2.55 2.10  
Year to date precipitation 29.32 34.37  
Sea Level Pressure  
Sea Level Pressure 29.94 in    
Wind  
Wind Speed 8 mph (NW)    
Max Wind Speed 17 mph    
Max Gust Speed 23 mph    
Visibility 10 miles    
Events      
T = Trace of Precipitation, MM = Missing Value Source: NWS Daily Summary

Daily Weather History Graph

Daily Weather History Graph

Search for Another Location

Airport or City:

Trip Planner

Search our weather history database for the weather conditions in past years. The results will help you decide how hot, cold, wet, or windy it might be!

Date:

Astronomy

Aug. 13, 2014 Rise Set
Actual Time 6:57 AM EDT 8:26 PM EDT
Civil Twilight 6:30 AM EDT 8:52 PM EDT
Nautical Twilight 5:59 AM EDT 9:24 PM EDT
Astronomical Twilight 5:25 AM EDT 9:57 PM EDT
Moon 10:24 PM EDT (8/13) 10:12 AM EDT (8/13)
Length of Visible Light 14h 21m
Length of Day
13h 28m
Waning Gibbous, 88% of the Moon is Illuminated
Aug 13
Waning Gibbous
Aug 17
Last Quarter
Aug 25
New
Sep 2
First Quarter
Sep 8
Full

Hourly Weather History & Observations

Time (EDT) Temp. Heat Index Dew Point Humidity Pressure Visibility Wind Dir Wind Speed Gust Speed Precip Events Conditions
12:53 AM 73.9 °F - 64.0 °F 71% 29.88 in 9.0 mi NW 4.6 mph - N/A   Mostly Cloudy
1:53 AM 73.0 °F - 64.9 °F 76% 29.88 in 9.0 mi West 3.5 mph - N/A   Overcast
2:53 AM 72.0 °F - 64.9 °F 78% 29.88 in 9.0 mi West 4.6 mph - N/A   Partly Cloudy
3:53 AM 70.0 °F - 64.0 °F 81% 29.89 in 8.0 mi WNW 4.6 mph - N/A   Clear
4:53 AM 70.0 °F - 62.1 °F 76% 29.89 in 9.0 mi NW 3.5 mph - N/A   Scattered Clouds
5:53 AM 69.1 °F - 61.0 °F 75% 29.90 in 10.0 mi NNW 6.9 mph - N/A   Partly Cloudy
6:53 AM 66.9 °F - 60.1 °F 79% 29.92 in 10.0 mi NW 5.8 mph - N/A   Clear
9:53 AM 73.9 °F - 60.1 °F 62% 29.97 in 10.0 mi NW 6.9 mph - N/A   Clear
10:53 AM 75.2 °F - 59.0 °F 57% 30.03 in 10.0 mi NW 10.4 mph - N/A   Clear
11:53 AM 78.1 °F - 57.0 °F 48% 29.98 in 10.0 mi NNW 12.7 mph 20.7 mph N/A   Clear
12:53 PM 79.0 °F - 54.0 °F 42% 29.97 in 10.0 mi WNW 10.4 mph - N/A   Clear
1:53 PM 81.0 °F 80.5 °F 54.0 °F 39% 29.96 in 10.0 mi NW 10.4 mph - N/A   Clear
2:53 PM 82.0 °F - 52.0 °F 35% 29.95 in 10.0 mi NNW 10.4 mph 20.7 mph N/A   Clear
3:53 PM 82.9 °F - 52.0 °F 34% 29.94 in 10.0 mi WNW 12.7 mph - N/A   Clear
4:53 PM 82.0 °F 81.6 °F 55.9 °F 41% 29.93 in 10.0 mi NNW 11.5 mph 19.6 mph N/A   Clear
5:53 PM 82.0 °F 81.6 °F 55.9 °F 41% 29.93 in 10.0 mi WNW 11.5 mph 20.7 mph N/A   Clear
6:53 PM 80.1 °F 80.6 °F 57.9 °F 47% 29.94 in 10.0 mi NW 11.5 mph - N/A   Clear
7:53 PM 78.1 °F - 57.9 °F 50% 29.95 in 10.0 mi WNW 9.2 mph - N/A   Clear
8:53 PM 75.0 °F - 57.9 °F 55% 29.96 in 10.0 mi NW 6.9 mph - N/A   Clear
9:53 PM 72.0 °F - 59.0 °F 64% 29.98 in 10.0 mi West 3.5 mph - N/A   Clear
10:53 PM 71.1 °F - 59.0 °F 66% 29.99 in 10.0 mi NW 4.6 mph - N/A   Clear